TimeCDT,TemperatureF,Dew PointF,Humidity,Sea Level PressureIn,VisibilityMPH,Wind Direction,Wind SpeedMPH,Gust SpeedMPH,PrecipitationIn,Events,Conditions,WindDirDegrees,DateUTC
12:53 AM,37.0,32.0,82,30.09,10.0,NW,8.1,-,N/A,,Mostly Cloudy,320,2012-10-10 05:53:00
1:53 AM,35.1,30.0,82,30.11,10.0,WNW,6.9,-,N/A,,Clear,300,2012-10-10 06:53:00
2:53 AM,33.1,28.9,85,30.12,10.0,West,6.9,-,N/A,,Clear,260,2012-10-10 07:53:00
3:53 AM,32.0,28.0,85,30.13,10.0,West,6.9,-,N/A,,Clear,270,2012-10-10 08:53:00
4:53 AM,32.0,27.0,82,30.15,10.0,West,6.9,-,N/A,,Clear,270,2012-10-10 09:53:00
5:53 AM,30.9,27.0,85,30.17,10.0,West,5.8,-,0.01,,Clear,260,2012-10-10 10:53:00
6:53 AM,30.9,27.0,85,30.19,10.0,West,6.9,-,N/A,,Clear,260,2012-10-10 11:53:00
7:53 AM,32.0,27.0,82,30.21,10.0,West,8.1,-,N/A,,Clear,260,2012-10-10 12:53:00
8:53 AM,37.0,28.9,73,30.22,10.0,West,9.2,-,N/A,,Clear,270,2012-10-10 13:53:00
9:53 AM,43.0,32.0,65,30.23,10.0,West,11.5,-,N/A,,Clear,270,2012-10-10 14:53:00
10:53 AM,48.0,32.0,54,30.24,10.0,West,12.7,-,N/A,,Clear,280,2012-10-10 15:53:00
11:53 AM,51.1,30.9,46,30.24,10.0,West,11.5,-,N/A,,Clear,280,2012-10-10 16:53:00
12:53 PM,53.1,26.1,35,30.22,10.0,WNW,12.7,-,N/A,,Partly Cloudy,290,2012-10-10 17:53:00
1:53 PM,54.0,23.0,30,30.20,10.0,WNW,12.7,20.7,N/A,,Clear,290,2012-10-10 18:53:00
2:53 PM,55.9,23.0,28,30.19,10.0,West,11.5,19.6,N/A,,Clear,280,2012-10-10 19:53:00
3:53 PM,57.0,23.0,27,30.17,10.0,NW,10.4,-,N/A,,Clear,310,2012-10-10 20:53:00
4:53 PM,57.0,21.0,25,30.14,10.0,SW,9.2,-,N/A,,Clear,230,2012-10-10 21:53:00
5:53 PM,55.0,21.0,27,30.14,10.0,SW,5.8,-,N/A,,Clear,230,2012-10-10 22:53:00
6:53 PM,45.0,21.9,40,30.14,10.0,Calm,Calm,-,N/A,,Clear,0,2012-10-10 23:53:00
7:53 PM,39.9,23.0,51,30.15,10.0,SSE,3.5,-,N/A,,Clear,160,2012-10-11 00:53:00
8:53 PM,39.0,25.0,57,30.15,10.0,South,5.8,-,N/A,,Clear,180,2012-10-11 01:53:00
9:53 PM,39.9,25.0,55,30.14,10.0,South,6.9,-,N/A,,Clear,190,2012-10-11 02:53:00
10:53 PM,37.9,26.1,62,30.14,10.0,South,8.1,-,N/A,,Clear,180,2012-10-11 03:53:00
11:53 PM,39.0,27.0,62,30.13,10.0,South,10.4,-,N/A,,Clear,190,2012-10-11 04:53:00